TimeCDT,TemperatureF,Dew PointF,Humidity,Sea Level PressureIn,VisibilityMPH,Wind Direction,Wind SpeedMPH,Gust SpeedMPH,PrecipitationIn,Events,Conditions,WindDirDegrees,DateUTC
1:56 AM,55.0,51.1,86,29.91,10.0,East,4.6,-,N/A,,Mostly Cloudy,90,2012-10-22 06:56:00
2:56 AM,54.0,50.0,86,29.90,10.0,ENE,4.6,-,N/A,,Mostly Cloudy,70,2012-10-22 07:56:00
3:56 AM,54.0,50.0,86,29.89,10.0,East,4.6,-,N/A,,Partly Cloudy,100,2012-10-22 08:56:00
4:56 AM,53.1,50.0,89,29.88,9.0,Calm,Calm,-,N/A,,Mostly Cloudy,0,2012-10-22 09:56:00
6:56 AM,53.1,50.0,89,29.91,8.0,Calm,Calm,-,N/A,,Overcast,0,2012-10-22 11:56:00
9:56 AM,55.9,53.1,90,29.90,6.0,East,4.6,-,N/A,,Overcast,100,2012-10-22 14:56:00
10:42 AM,57.2,51.8,82,29.94,6.0,ESE,3.5,-,N/A,,Haze,110,2012-10-22 15:42:00
10:51 AM,55.4,51.8,88,29.94,1.5,East,4.6,-,0.10,Rain,Heavy Rain,80,2012-10-22 15:51:00
10:56 AM,55.0,53.1,93,29.92,1.0,ENE,6.9,-,0.17,Rain-Thunderstorm,Heavy Thunderstorms and Rain,70,2012-10-22 15:56:00
11:06 AM,55.4,53.6,94,29.92,2.0,ENE,6.9,-,0.03,Rain-Thunderstorm,Thunderstorms and Rain,60,2012-10-22 16:06:00
11:56 AM,57.0,55.0,93,29.88,4.0,East,4.6,-,0.03,,Overcast,90,2012-10-22 16:56:00
1:29 PM,57.2,55.4,94,29.88,2.5,ESE,6.9,-,0.00,Rain,Light Rain,120,2012-10-22 18:29:00
1:56 PM,57.9,55.9,93,29.87,2.5,East,9.2,-,0.00,,Overcast,100,2012-10-22 18:56:00
2:19 PM,57.2,55.4,94,29.89,3.0,ENE,3.5,-,N/A,,Overcast,70,2012-10-22 19:19:00
2:56 PM,59.0,55.9,90,29.86,3.0,East,9.2,-,N/A,,Scattered Clouds,100,2012-10-22 19:56:00
3:15 PM,60.8,57.2,88,29.88,3.0,East,5.8,-,N/A,,Partly Cloudy,80,2012-10-22 20:15:00
3:27 PM,60.8,57.2,88,29.88,3.0,East,3.5,-,N/A,,Mostly Cloudy,80,2012-10-22 20:27:00
3:54 PM,60.8,57.2,88,29.88,3.0,ESE,3.5,-,N/A,,Overcast,110,2012-10-22 20:54:00
3:56 PM,60.1,57.0,90,29.87,3.0,ESE,4.6,-,N/A,,Overcast,110,2012-10-22 20:56:00
4:18 PM,60.8,57.2,88,29.88,3.0,ENE,8.1,-,N/A,,Mostly Cloudy,70,2012-10-22 21:18:00
4:34 PM,60.8,57.2,88,29.87,3.0,East,11.5,-,N/A,,Mostly Cloudy,80,2012-10-22 21:34:00
4:56 PM,60.1,57.9,93,29.86,3.0,East,8.1,-,N/A,,Mostly Cloudy,80,2012-10-22 21:56:00
6:18 PM,59.0,57.2,94,29.90,3.0,Calm,Calm,-,N/A,,Overcast,0,2012-10-22 23:18:00
6:28 PM,59.0,57.2,94,29.90,2.5,NE,3.5,-,N/A,,Overcast,40,2012-10-22 23:28:00
6:56 PM,59.0,57.9,96,29.91,2.5,Calm,Calm,-,N/A,,Overcast,0,2012-10-22 23:56:00
7:40 PM,59.0,57.2,94,29.92,3.0,Calm,Calm,-,N/A,,Overcast,0,2012-10-23 00:40:00
7:56 PM,59.0,57.0,93,29.91,3.0,East,4.6,-,N/A,,Overcast,90,2012-10-23 00:56:00
8:56 PM,57.9,57.0,97,29.91,2.5,SE,3.5,-,N/A,,Overcast,140,2012-10-23 01:56:00
9:22 PM,57.2,57.2,100,29.91,2.5,East,5.8,-,N/A,,Overcast,80,2012-10-23 02:22:00
9:43 PM,59.0,57.2,94,29.90,3.0,ENE,5.8,-,N/A,,Overcast,70,2012-10-23 02:43:00
9:56 PM,59.0,57.0,93,29.89,4.0,ENE,5.8,-,N/A,,Overcast,70,2012-10-23 02:56:00
10:17 PM,59.0,57.2,94,29.91,3.0,Calm,Calm,-,N/A,,Overcast,0,2012-10-23 03:17:00
10:56 PM,59.0,57.0,93,29.91,3.0,East,6.9,-,N/A,,Overcast,90,2012-10-23 03:56:00
11:12 PM,57.2,57.2,100,29.92,2.5,East,4.6,-,N/A,,Overcast,90,2012-10-23 04:12:00
11:56 PM,57.9,55.9,93,29.90,2.5,East,9.2,-,N/A,,Overcast,90,2012-10-23 04:56:00